When you browse on this site, cookies collect data to enhance your experience and personalize the content and advertising you see.
Visit our Privacy Policy to learn more. By continuing to use the site, you agree to this use of cookies and data.
  • In Schweiz
  • Länderverzeichnis
  • Für 7 Tage
  • Wassertemperatur
  • Wetterkarte
  • Widgets
  • user-avatar
    Anmelden

    Stündliche Wetter Morevo

    Heute, 23 August, Freitag

    Zeit Temperatur Niederschläge Wind Luftdruck Luftfeuchtigkeit
    00:00 +13°C° 0 mm 2 m/S 755 mmHg 86%
    01:00 +12°C° 0 mm 2 m/S 755 mmHg 87%
    02:00 +12°C° 0 mm 1 m/S 755 mmHg 89%
    03:00 +12°C° 0 mm 1 m/S 755 mmHg 89%
    04:00 +11°C° 0 mm 1 m/S 755 mmHg 90%
    05:00 +10°C° 0 mm 0 m/S 755 mmHg 91%
    06:00 +12°C° 0 mm 0 m/S 755 mmHg 85%
    07:00 +14°C° 0 mm 0 m/S 756 mmHg 79%
    08:00 +18°C° 0 mm 1 m/S 756 mmHg 73%
    09:00 +19°C° 0 mm 1 m/S 756 mmHg 68%
    10:00 +21°C° 0 mm 1 m/S 756 mmHg 62%
    11:00 +22°C° 0 mm 1 m/S 756 mmHg 57%
    12:00 +23°C° 0 mm 1 m/S 755 mmHg 54%
    13:00 +23°C° 0 mm 1 m/S 755 mmHg 52%
    14:00 +24°C° 0 mm 1 m/S 755 mmHg 50%
    15:00 +23°C° 0 mm 1 m/S 755 mmHg 55%
    16:00 +23°C° 0 mm 1 m/S 755 mmHg 60%
    17:00 +22°C° 0 mm 1 m/S 754 mmHg 65%
    18:00 +20°C° 0 mm 1 m/S 754 mmHg 71%
    19:00 +18°C° 0 mm 1 m/S 754 mmHg 77%
    20:00 +15°C° 0 mm 1 m/S 754 mmHg 83%
    21:00 +14°C° 0 mm 1 m/S 754 mmHg 85%
    22:00 +14°C° 0 mm 1 m/S 754 mmHg 86%
    23:00 +13°C° 0 mm 1 m/S 754 mmHg 88%

    Morgen, 24 August, Samstag

    Zeit Temperatur Niederschläge Wind Luftdruck Luftfeuchtigkeit
    00:00 +13°C° 0 mm 1 m/S 754 mmHg 89%
    01:00 +13°C° 0 mm 1 m/S 754 mmHg 89%
    02:00 +11°C° 0 mm 0 m/S 754 mmHg 90%
    03:00 +12°C° 0 mm 1 m/S 754 mmHg 90%
    04:00 +12°C° 0 mm 1 m/S 754 mmHg 91%
    05:00 +12°C° 0 mm 1 m/S 753 mmHg 92%
    06:00 +14°C° 0 mm 1 m/S 753 mmHg 86%
    07:00 +16°C° 0 mm 2 m/S 753 mmHg 81%
    08:00 +17°C° 0 mm 2 m/S 753 mmHg 76%
    09:00 +19°C° 0 mm 2 m/S 753 mmHg 71%
    10:00 +20°C° 0 mm 3 m/S 753 mmHg 67%
    11:00 +21°C° 0 mm 3 m/S 753 mmHg 62%
    12:00 +22°C° 0 mm 3 m/S 753 mmHg 61%
    13:00 +22°C° 0 mm 3 m/S 752 mmHg 60%
    14:00 +23°C° 0 mm 4 m/S 752 mmHg 59%
    15:00 +22°C° 0 mm 3 m/S 752 mmHg 63%
    16:00 +22°C° 0 mm 3 m/S 752 mmHg 67%
    17:00 +23°C° 0 mm 2 m/S 751 mmHg 71%
    18:00 +20°C° 0 mm 2 m/S 751 mmHg 77%
    19:00 +18°C° 0 mm 2 m/S 751 mmHg 83%
    20:00 +17°C° 0 mm 2 m/S 751 mmHg 89%
    21:00 +16°C° 0 mm 2 m/S 751 mmHg 91%
    22:00 +16°C° 0 mm 2 m/S 751 mmHg 93%
    23:00 +15°C° 0 mm 2 m/S 752 mmHg 95%

    übermorgen, 25 August, Sonntag

    Zeit Temperatur Niederschläge Wind Luftdruck Luftfeuchtigkeit
    00:00 +15°C° 0 mm 2 m/S 752 mmHg 95%
    01:00 +15°C° 0 mm 2 m/S 752 mmHg 96%
    02:00 +14°C° 0 mm 2 m/S 752 mmHg 96%
    03:00 +14°C° 0 mm 2 m/S 752 mmHg 96%
    04:00 +14°C° 0 mm 2 m/S 752 mmHg 96%
    05:00 +13°C° 0 mm 2 m/S 752 mmHg 96%
    06:00 +15°C° 0 mm 2 m/S 752 mmHg 90%
    07:00 +16°C° 0 mm 2 m/S 753 mmHg 85%
    08:00 +18°C° 0 mm 2 m/S 753 mmHg 79%
    09:00 +19°C° 0 mm 2 m/S 753 mmHg 72%
    10:00 +20°C° 0 mm 2 m/S 753 mmHg 65%
    11:00 +23°C° 0 mm 2 m/S 753 mmHg 58%
    12:00 +23°C° 0 mm 2 m/S 753 mmHg 57%
    13:00 +23°C° 0 mm 2 m/S 753 mmHg 55%
    14:00 +24°C° 0 mm 1 m/S 753 mmHg 53%
    15:00 +23°C° 0 mm 1 m/S 753 mmHg 58%
    16:00 +23°C° 0 mm 1 m/S 753 mmHg 62%
    17:00 +23°C° 0 mm 1 m/S 753 mmHg 67%
    18:00 +20°C° 0 mm 1 m/S 753 mmHg 71%
    19:00 +18°C° 0 mm 1 m/S 753 mmHg 75%
    20:00 +15°C° 0 mm 1 m/S 754 mmHg 79%
    21:00 +15°C° 0 mm 1 m/S 754 mmHg 81%
    22:00 +14°C° 0 mm 1 m/S 754 mmHg 83%
    23:00 +13°C° 0 mm 1 m/S 754 mmHg 86%

    26 August, Montag

    Zeit Temperatur Niederschläge Wind Luftdruck Luftfeuchtigkeit
    00:00 +13°C° 0 mm 1 m/S 754 mmHg 87%
    01:00 +13°C° 0 mm 1 m/S 754 mmHg 88%
    02:00 +12°C° 0 mm 1 m/S 754 mmHg 89%
    03:00 +12°C° 0 mm 1 m/S 754 mmHg 90%
    04:00 +12°C° 0 mm 1 m/S 754 mmHg 90%
    05:00 +12°C° 0 mm 1 m/S 754 mmHg 91%
    06:00 +14°C° 0 mm 1 m/S 754 mmHg 84%
    07:00 +16°C° 0 mm 1 m/S 754 mmHg 78%
    08:00 +19°C° 0 mm 1 m/S 754 mmHg 71%
    09:00 +20°C° 0 mm 1 m/S 754 mmHg 67%
    10:00 +22°C° 0 mm 1 m/S 754 mmHg 64%
    11:00 +23°C° 0 mm 1 m/S 754 mmHg 60%
    12:00 +23°C° 0 mm 1 m/S 754 mmHg 61%
    13:00 +23°C° 0 mm 1 m/S 754 mmHg 61%
    14:00 +23°C° 0 mm 2 m/S 754 mmHg 61%
    15:00 +23°C° 0 mm 1 m/S 753 mmHg 65%
    16:00 +23°C° 0 mm 1 m/S 753 mmHg 69%
    17:00 +23°C° 0 mm 1 m/S 752 mmHg 72%
    18:00 +21°C° 0 mm 1 m/S 752 mmHg 76%
    19:00 +20°C° 0 mm 1 m/S 752 mmHg 81%
    20:00 +18°C° 0 mm 1 m/S 752 mmHg 85%
    21:00 +16°C° 0 mm 1 m/S 752 mmHg 87%
    22:00 +16°C° 0 mm 1 m/S 752 mmHg 89%
    23:00 +15°C° 0 mm 1 m/S 752 mmHg 91%

    27 August, Dienstag

    Zeit Temperatur Niederschläge Wind Luftdruck Luftfeuchtigkeit
    00:00 +15°C° 0 mm 1 m/S 752 mmHg 91%
    01:00 +15°C° 0 mm 1 m/S 752 mmHg 92%
    02:00 +14°C° 0 mm 1 m/S 752 mmHg 93%
    03:00 +14°C° 0 mm 2 m/S 752 mmHg 93%
    04:00 +14°C° 0 mm 2 m/S 751 mmHg 93%
    05:00 +14°C° 0 mm 2 m/S 751 mmHg 93%
    06:00 +15°C° 0 mm 2 m/S 751 mmHg 89%
    07:00 +17°C° 0 mm 2 m/S 751 mmHg 85%
    08:00 +18°C° 0 mm 2 m/S 751 mmHg 81%
    09:00 +20°C° 0 mm 2 m/S 751 mmHg 76%
    10:00 +21°C° 0 mm 3 m/S 751 mmHg 71%
    11:00 +24°C° 0 mm 3 m/S 751 mmHg 66%
    12:00 +24°C° 0 mm 3 m/S 751 mmHg 65%
    13:00 +25°C° 0 mm 3 m/S 751 mmHg 63%
    14:00 +25°C° 0 mm 3 m/S 750 mmHg 61%
    15:00 +25°C° 0 mm 3 m/S 750 mmHg 65%
    16:00 +24°C° 0 mm 3 m/S 750 mmHg 68%
    17:00 +24°C° 0 mm 2 m/S 750 mmHg 72%
    18:00 +21°C° 0 mm 2 m/S 750 mmHg 77%
    19:00 +19°C° 0 mm 2 m/S 750 mmHg 81%
    20:00 +18°C° 0 mm 2 m/S 750 mmHg 86%
    21:00 +17°C° 0 mm 2 m/S 751 mmHg 89%
    22:00 +16°C° 0 mm 2 m/S 751 mmHg 91%
    23:00 +16°C° 0 mm 2 m/S 751 mmHg 94%

    28 August, Mittwoch

    Zeit Temperatur Niederschläge Wind Luftdruck Luftfeuchtigkeit
    00:00 +15°C° 0 mm 1 m/S 751 mmHg 94%
    01:00 +15°C° 0 mm 1 m/S 751 mmHg 93%
    02:00 +14°C° 0 mm 1 m/S 751 mmHg 93%
    03:00 +14°C° 0 mm 1 m/S 751 mmHg 93%
    04:00 +13°C° 0 mm 1 m/S 751 mmHg 92%
    05:00 +13°C° 0 mm 1 m/S 752 mmHg 92%
    06:00 +14°C° 0 mm 1 m/S 752 mmHg 86%
    07:00 +16°C° 0 mm 1 m/S 752 mmHg 80%
    08:00 +18°C° 0 mm 1 m/S 752 mmHg 73%
    09:00 +18°C° 0 mm 2 m/S 752 mmHg 67%
    10:00 +20°C° 0 mm 2 m/S 752 mmHg 61%
    11:00 +21°C° 0 mm 2 m/S 752 mmHg 55%
    12:00 +23°C° 0 mm 2 m/S 752 mmHg 54%
    13:00 +23°C° 0 mm 2 m/S 752 mmHg 52%
    14:00 +23°C° 0 mm 2 m/S 752 mmHg 51%
    15:00 +23°C° 0 mm 2 m/S 752 mmHg 56%
    16:00 +22°C° 0 mm 1 m/S 752 mmHg 61%
    17:00 +22°C° 0 mm 1 m/S 752 mmHg 66%
    18:00 +19°C° 0 mm 2 m/S 752 mmHg 72%
    19:00 +17°C° 0 mm 2 m/S 752 mmHg 78%
    20:00 +15°C° 0 mm 2 m/S 752 mmHg 84%
    21:00 +14°C° 0 mm 2 m/S 752 mmHg 84%
    22:00 +14°C° 0 mm 2 m/S 752 mmHg 84%
    23:00 +13°C° 0 mm 2 m/S 753 mmHg 84%
    Mehr zeigen